Orbital Elements at Epoch 2459200.5 (2020-Dec-17.0) TDB
Reference: JPL 13 (heliocentric ecliptic J2000)
Element | Value | Uncertainty (1-sigma) | Units |
e | .1717186371527615 | 1.518e-07 | |
a | 2.593788578507072 | 2.5711e-08 | au |
q | 2.14838673874344 | 3.8323e-07 | au |
i | 27.40514608130985 | 6.0253e-06 | deg |
node | 286.1336395609673 | 1.9559e-05 | deg |
peri | 64.84837839399992 | 6.6561e-05 | deg |
M | 34.05185365203832 | 4.2544e-05 | deg |
tp | 2459056.176004113359 (2020-Jul-25.67600411) | 0.00018169 | TDB |
period | 1525.809403802628 4.18 | 2.2687e-05 6.211e-08 | d yr |
n | .2359403468760951 | 3.5082e-09 | deg/d |
Q | 3.039190418270705 | 3.0127e-08 | au |
|
| | Orbit Determination Parameters
Additional Information
|